This is the latest recevied weather packets stored in our database for station/object W5MAI. If no packets are shown the sender has not sent any weather packets the latest 10 day(s).
| Time | Temp. | Humidity | Pressure | Rain* | Wind** | Luminosity | Snow |
|---|---|---|---|---|---|---|---|
| 1788295411 | 35.56° C | 44% | 1015.6 hPa | 0 mm | - | 216 W/m² | - |
| 1788294218 | 35.56° C | 46% | 1015.9 hPa | 0 mm | - | 902 W/m² | - |
| 1788293625 | 35.56° C | 44% | 1016.2 hPa | 0 mm | - | 919 W/m² | - |
| 1788293030 | 35° C | 46% | 1016.2 hPa | 0 mm | - | 981 W/m² | - |
| 1788292403 | 34.44° C | 46% | 1016.4 hPa | 0 mm | - | 928 W/m² | - |
| 1788291852 | 35° C | 45% | 1016.4 hPa | 0 mm | - | 376 W/m² | - |
| 1788291259 | 34.44° C | 46% | 1016.6 hPa | 0 mm | - | 954 W/m² | - |
| 1788290606 | 33.89° C | 45% | 1016.8 hPa | 0 mm | - | 930 W/m² | - |
| 1788290014 | 33.89° C | 46% | 1016.8 hPa | 0 mm | - | 158 W/m² | - |
| 1788289407 | 34.44° C | 46% | 1017 hPa | 0 mm | - | 940 W/m² | - |
| 1788288814 | 33.89° C | 47% | 1017.1 hPa | 0 mm | - | 932 W/m² | - |
| 1788288223 | 34.44° C | 46% | 1017.2 hPa | 0 mm | - | 921 W/m² | - |
| 1788287614 | 33.89° C | 47% | 1017.4 hPa | 0 mm | - | 907 W/m² | - |
| 1788287032 | 33.89° C | 47% | 1017.6 hPa | 0 mm | - | 907 W/m² | - |
| 1788286442 | 33.89° C | 48% | 1017.7 hPa | 0 mm | - | 891 W/m² | - |
| 1788285831 | 33.89° C | 47% | 1018 hPa | 0 mm | - | 896 W/m² | - |
| 1788285240 | 33.33° C | 50% | 1018.1 hPa | 0 mm | - | 911 W/m² | - |
| 1788284648 | 33.33° C | 50% | 1018.3 hPa | 0 mm | - | 891 W/m² | - |
| 1788284052 | 32.78° C | 52% | 1018.4 hPa | 0 mm | - | 863 W/m² | - |
| 1788283441 | 32.78° C | 53% | 1018.5 hPa | 0 mm | - | 851 W/m² | - |
| 1788282834 | 32.78° C | 52% | 1018.6 hPa | 0 mm | - | 833 W/m² | - |
| 1788282242 | 32.78° C | 53% | 1018.7 hPa | 0 mm | - | 805 W/m² | - |
| 1788281623 | 32.22° C | 54% | 1018.7 hPa | 0 mm | - | 784 W/m² | - |
| 1788281014 | 32.22° C | 53% | 1018.8 hPa | 0 mm | - | 780 W/m² | - |
| 1788280433 | 31.67° C | 56% | 1018.8 hPa | 0 mm | - | 756 W/m² | - |
* Rain latest hour (hover to see other rain measurements)
** Current wind speed in m/s (hover to see current wind gust speed)